STARLINK-11599

Satellite information

Favourite Embed

Satellite Type and Status

PAYLOADIN ORBIT

Key statistics

Satellite STARLINK-11599 at a glance.

Uptime

229

Days in orbit

Revolutions

≈ 15.7

Per day

Orbit

LEO

Low Earth Orbit

Inclination

43.0

Latest

Satellite identification and parameters

Extended collection of information and parameters for STARLINK-11599.

Object identification

Identified? True

Debris? False

Object name: STARLINK-11599

International designator: 2025-085G

Object number (NORAD): 63670

Object ID (CCSDS): 63670

Country: UNITED STATES OF AMERICA (US)

Current information (Y/N): Y

RCS size: LARGE

Orbital parameters

Period: 91.66 minutes

Inclination: 42.9971 deg

SMA: 6734.123 km

Apoapsis: 357.142 km

Periapsis: 354.834 km

RAAN: 85.809 deg

Eccentricy: 0.00017138

Argument of periapsis: 213.4258 deg

Mean anomaly: 146.6501 deg

Mean motion: 15.71018059 rev/day

Mean motion (dot): 0.00471733 rev/day2

B* drag term: 0.0034493729 1/REarth

Two-line elements (TLE)

Creation date: Dec. 12, 2025, 10:14 a.m.

Reference frame: TEME

Reference center: EARTH

Epoch: Dec. 12, 2025, 5:20 a.m. UTC

TLE line 0: 0 STARLINK-11599

TLE line 1: 1 63670U 25085G 25346.22276250 .00471733 00000-0 34494-2 0 9999

TLE line 2: 2 63670 42.9971 85.8090 0001714 213.4258 146.6501 15.71018059 36485

Live tracking on map

Real-time ground track for satellite STARLINK-11599.

In-orbit conjunctions

There are no conjunctions computed for STARLINK-11599, at the moment. Check back to stay up to date, as we update our databases every day.

Go to all conjunctions

Associated space launch

A batch of 23 satellites for the Starlink mega-constellation - SpaceX's project for space-based Internet communication system.

STARLINK-11599 was lifted into orbit during the mission ‘Falcon 9 Block 5 | Starlink Group 12-23’, on board a Falcon 9 space rocket.

The launch took place on April 28, 2025, 2:09 a.m. from Space Launch Complex 40.

For more information about the launch, click the button.

Launch to space Falcon 9 Block 5 | Starlink Group 12-23
Falcon 9 Block 5 | Starlink Group 12-23

Agency: SpaceX

Status: Launch Successful

Launch date: April 28, 2025, 2:09 a.m. UTC

Rocket: Falcon 9

Launch pad: Space Launch Complex 40

Location: Cape Canaveral SFS, FL, USA

...

Latest news about this satellite

News about space launch
Live coverage: SpaceX to launch 23 Starlink satellites on Falcon 9 rocket from Cape Canaveral

The Starlink 12-23 mission includes 13 Direct to Cell Starlink satellites. Liftoff from pad 40 at Cape Canaveral Space Force Station is targeting Sunday, April 27, at 10:58 p.m. EDT (0258 UTC).


Newsletter sign-up

Weekly statistics, charts and insights to help you stay on top of the space industry.